RH
39 61 90 74 49 52 70 86 90 98 89 89 54 39 38 40 40 41 37 31 26 22 19 16 18 18 15 12 11 11 12 12 11 9 8 8 7 8 12 14 15 14 13 14
49 58 99 100 64 51 60 78 86 94 83 98 48 34 30 22 25 24 21 18 18 17 16 14 12 12 11 10 11 12 11 10 10 10 9 8 8 6 6 10 13 14 12 12
26 82 100 97 66 48 54 71 74 69 88 96 63 32 27 21 19 18 17 16 14 12 10 9 9 9 9 9 10 11 10 10 9 9 9 8 8 8 8 9 12 13 13 12
36 87 100 99 99 49 52 73 88 93 96 81 62 42 29 24 21 18 16 15 14 13 11 10 10 10 10 10 10 11 10 10 10 9 8 7 6 5 7 8 11 14 14 13
57 87 99 98 99 85 53 68 69 58 98 71 54 53 52 31 26 24 18 16 14 13 12 11 11 11 10 10 10 10 9 8 7 7 7 8 8 8 7 7 8 9 12 14
89 98 100 99 95 88 60 63 59 42 93 64 45 49 38 39 28 27 31 18 17 15 13 11 10 10 10 9 9 8 7 8 10 12 13 12 11 10 10 10 10 10 12 13
98 100 100 99 97 94 64 58 50 52 61 94 64 35 40 42 41 25 18 17 17 16 14 12 10 10 9 9 8 9 12 14 16 16 14 12 11 10 10 9 9 8 9 9
100 100 100 99 94 81 66 52 44 42 53 77 80 55 35 30 28 23 20 16 14 12 12 11 10 9 9 10 13 15 18 18 18 14 11 10 8 8 9 9 11 14 17 20
100 100 100 100 100 100 84 52 42 37 38 69 53 46 38 27 21 19 17 14 14 13 12 11 11 12 14 17 19 19 16 12 10 9 8 8 9 12 14 13 14 17 21 26
98 100 100 100 100 100 100 100 82 55 46 49 49 38 29 25 23 21 19 18 16 15 14 15 17 19 19 16 12 11 10 9 9 9 9 13 13 13 15 17 18 18 16 16
98 98 100 98 99 98 100 100 100 98 76 67 55 46 41 36 32 27 23 20 20 21 21 20 18 14 12 11 10 10 10 10 12 14 13 14 13 10 8 8 12 13 17 18
100 100 96 99 98 99 95 90 91 89 97 95 85 60 50 35 28 27 27 25 22 19 16 15 13 12 10 10 11 12 14 16 14 14 15 12 8 7 8 7 9 12 21 31
88 88 90 84 83 79 72 59 55 59 53 60 43 39 32 30 29 26 23 21 19 17 16 14 12 11 12 14 18 18 17 16 18 17 13 10 9 8 11 13 10 12 22 41
84 80 71 70 67 62 51 39 32 32 34 44 40 35 34 30 27 24 23 20 18 16 14 14 15 19 27 24 23 20 18 21 19 15 10 11 16 17 14 12 10 16 29 43
78 76 71 62 61 59 60 66 63 49 50 42 41 34 30 30 29 27 24 22 20 19 23 31 37 33 29 26 23 20 22 20 19 15 12 13 14 10 12 18 22 25 37 53
90 92 87 79 71 66 59 60 74 84 65 41 33 30 27 32 30 26 24 22 28 37 43 44 41 36 33 32 28 24 26 24 21 18 16 15 15 13 20 19 25 32 40 50
85 77 70 67 55 49 43 42 44 49 41 39 34 32 33 30 28 27 28 40 54 54 48 33 22 19 24 30 32 27 28 30 26 22 18 16 18 22 21 24 29 36 44 49
46 47 50 54 46 42 40 35 37 40 36 41 38 35 32 26 28 45 66 73 58 35 27 22 22 26 23 26 30 31 41 36 32 26 24 25 23 30 27 32 36 38 47 50
37 34 37 38 35 34 35 39 46 45 41 36 29 28 28 38 69 88 86 58 38 35 28 26 23 23 38 43 43 46 45 43 39 36 34 35 34 35 36 41 45 48 52 55
34 34 35 34 32 33 40 44 42 38 34 34 32 30 51 83 96 93 64 45 42 37 30 30 25 25 24 35 48 48 48 48 46 43 44 47 44 45 43 46 45 44 38 43
32 34 33 32 39 48 46 41 37 34 30 33 35 57 90 100 98 78 58 51 47 38 36 38 39 33 31 33 45 55 53 56 58 54 51 50 49 51 42 29 28 30 34 40
37 42 48 49 53 48 44 41 37 36 34 41 70 94 100 99 84 72 63 54 48 44 47 51 49 45 41 37 44 57 59 72 72 64 60 65 65 40 32 38 42 45 48 51
67 59 62 57 55 51 47 46 42 35 32 37 86 100 100 96 80 69 55 38 32 36 58 58 55 57 51 49 49 50 60 66 69 69 64 48 37 44 46 46 47 47 52 54
86 76 72 67 61 59 57 54 49 41 35 33 82 100 100 96 76 55 45 43 40 39 43 52 60 62 62 59 62 58 64 77 73 59 40 49 52 51 48 46 48 53 56 57
75 76 75 72 69 65 62 59 54 47 39 33 81 96 100 92 63 53 54 50 46 46 47 47 48 57 66 66 67 71 76 78 60 46 56 59 58 56 52 54 56 58 60 58
36 45 57 65 62 60 57 54 51 46 34 38 82 100 100 90 66 58 57 55 52 49 48 54 53 54 74 74 70 72 78 82 65 58 66 69 70 66 61 61 59 56 56 57
Wind_Speed
45 46 41 40 51 51 54 48 44 41 45 47 43 43 46 44 45 45 45 46 45 44 45 42 41 41 38 38 37 38 38 38 38 39 41 39 43 44 46 46 45 45 45 46
40 38 34 44 49 54 52 49 46 41 39 42 42 41 41 38 41 42 41 40 43 44 44 44 42 41 38 37 37 37 37 38 38 41 41 41 42 44 47 48 48 47 48 48
38 34 39 41 47 52 52 48 47 42 36 42 41 39 40 37 36 35 34 35 36 37 38 39 39 38 37 37 37 37 38 39 41 42 43 44 41 43 45 45 48 50 52 52
36 32 31 40 41 52 53 50 49 42 39 39 38 38 40 38 36 33 34 34 34 34 35 36 37 37 37 37 38 38 39 40 41 42 43 44 45 44 45 47 48 50 53 55
30 31 32 31 36 49 52 49 47 45 42 38 39 38 42 37 36 35 34 34 34 34 34 35 37 38 38 39 39 39 39 40 40 41 42 43 44 44 45 47 49 51 52 55
30 32 30 30 37 46 48 48 46 43 42 40 36 37 41 37 36 35 38 35 34 35 37 38 39 39 39 39 39 39 40 40 39 40 41 42 43 44 45 47 48 50 52 54
25 33 37 31 32 40 44 45 43 44 44 45 37 37 42 35 36 35 33 33 34 35 36 38 38 39 38 38 38 38 38 38 39 40 41 41 41 42 44 45 47 50 52 55
24 31 36 27 33 32 36 38 42 44 47 45 42 41 43 37 35 35 34 34 35 35 36 37 38 37 37 37 36 36 38 40 40 40 39 39 40 42 44 47 49 52 55 58
19 29 26 35 33 31 36 38 37 40 42 40 39 41 39 38 35 35 35 35 34 35 35 35 35 35 35 35 37 38 37 36 35 36 38 39 40 41 45 50 55 59 63 66
21 25 29 26 24 33 27 26 34 37 36 37 38 40 38 35 34 33 33 32 32 32 33 34 34 34 34 34 33 31 31 32 34 36 36 37 40 44 48 52 56 58 59 65
20 21 26 26 27 28 29 28 28 27 34 31 34 38 36 35 32 31 31 30 30 31 32 32 31 31 29 28 29 29 30 31 32 33 33 36 40 45 49 45 43 52 59 64
18 17 18 20 23 25 22 22 20 21 24 26 26 29 31 30 31 29 28 28 29 28 28 28 28 28 27 26 25 26 29 30 29 31 33 37 39 38 39 46 49 53 58 55
22 16 17 19 22 23 22 21 22 22 22 22 24 28 26 29 28 27 27 26 26 25 25 26 26 25 23 23 25 26 26 28 28 29 32 32 38 41 46 44 45 52 54 50
21 21 19 19 18 19 18 16 20 24 23 24 25 23 27 25 23 23 23 24 25 25 24 23 22 22 23 24 24 24 26 25 27 25 24 28 34 34 34 39 44 48 46 39
21 20 20 20 18 19 20 20 16 13 22 26 28 26 26 22 22 23 24 24 24 23 22 22 23 24 25 24 23 24 25 26 25 25 22 23 26 26 28 31 36 38 41 40
17 19 20 19 21 21 20 20 21 23 20 21 23 23 20 20 22 22 22 22 22 21 22 23 24 25 26 26 26 27 29 30 26 22 20 22 22 23 22 26 26 29 32 33
18 16 17 17 17 17 17 18 19 20 24 25 21 23 19 21 20 20 20 19 19 19 20 21 23 25 27 29 27 29 29 26 25 24 22 24 24 22 24 23 23 25 28 28
16 17 19 18 19 20 17 19 21 22 22 21 21 20 21 21 19 18 18 16 16 16 16 15 15 17 19 24 27 27 23 22 20 23 24 25 23 23 24 24 23 23 22 22
18 19 20 20 19 19 19 18 18 19 19 20 20 21 21 19 17 17 17 17 16 14 14 13 13 14 16 17 19 21 23 22 24 21 24 25 21 21 21 23 20 21 21 21
19 18 20 20 19 19 16 17 18 18 18 19 20 20 20 18 18 17 16 16 15 14 13 14 12 11 13 17 20 22 24 21 18 18 19 19 14 20 21 18 17 16 18 17
20 19 19 19 19 18 17 17 18 18 16 18 19 19 19 19 17 17 16 17 15 15 14 12 10 12 14 16 18 20 20 22 21 19 20 19 23 20 16 16 18 19 20 19
20 20 20 21 19 20 17 18 18 16 17 18 18 18 19 20 17 18 18 18 15 16 16 12 12 13 14 16 17 18 19 19 19 18 17 17 17 15 16 17 18 19 20 20
20 20 20 21 21 21 19 19 18 17 18 18 19 19 20 21 18 19 18 16 15 18 16 16 15 14 15 16 16 16 18 18 18 18 16 15 15 15 16 17 19 19 19 19
25 25 23 24 24 23 22 22 21 21 20 21 21 22 21 20 21 19 15 12 14 17 17 17 17 15 16 17 18 18 18 18 17 18 16 15 14 14 15 16 18 18 18 18
25 26 27 28 29 30 28 26 24 24 23 24 23 23 23 22 22 19 15 13 13 14 16 17 16 18 17 18 19 18 19 19 17 17 16 14 14 15 15 16 17 17 18 19
25 27 27 27 29 28 26 26 25 25 25 25 25 24 25 24 24 21 18 16 15 15 15 16 18 19 19 19 18 18 19 19 18 18 18 17 17 17 17 18 17 19 21 21
Wind_Direction
206 209 218 213 205 207 211 218 219 220 217 215 219 223 228 230 233 237 241 242 242 244 246 248 250 249 249 250 252 255 259 262 265 267 269 272 274 274 276 277 276 277 279 279
203 210 210 206 206 208 210 213 218 215 220 215 218 220 224 227 230 234 238 242 242 242 246 248 249 249 247 247 251 255 259 262 266 269 272 272 274 276 275 277 280 279 277 276
205 206 202 200 206 208 211 211 216 215 225 214 215 222 225 226 226 231 237 242 244 245 245 248 251 252 253 254 256 258 261 265 268 270 272 274 272 273 273 274 274 275 276 277
201 208 197 204 207 206 209 210 214 214 218 220 219 231 225 226 230 231 236 242 246 248 249 250 253 256 259 262 263 266 267 268 269 270 272 273 274 272 269 268 267 270 274 276
199 205 199 212 212 206 210 210 212 215 218 221 222 228 229 232 234 236 239 242 245 249 251 254 256 259 261 264 266 266 267 267 268 269 270 271 273 273 272 271 270 269 269 270
192 193 195 212 209 207 209 209 213 215 216 218 223 228 239 231 235 235 237 243 246 250 252 255 257 259 261 264 266 268 269 270 271 272 273 274 275 275 275 275 274 272 270 270
193 192 204 209 210 208 208 209 215 219 222 227 218 228 238 234 237 241 241 244 246 248 251 254 256 258 260 262 263 264 266 270 272 274 274 274 275 275 276 276 275 274 274 274
176 198 209 194 209 209 212 213 215 220 224 230 224 232 235 238 241 245 247 248 248 248 249 252 254 256 258 259 261 264 268 271 274 275 277 278 279 281 283 283 282 281 280 278
171 170 177 199 209 203 208 212 216 220 226 229 227 231 236 239 240 242 246 246 245 245 247 249 249 250 253 258 263 266 269 271 274 278 281 284 287 287 288 288 287 284 283 280
179 163 158 172 174 193 196 207 217 221 225 226 228 233 236 237 242 242 243 242 241 241 241 244 247 250 255 259 263 267 271 276 281 286 287 287 290 291 291 289 288 290 295 290
178 185 176 173 176 181 194 200 207 217 223 226 231 235 237 237 238 236 234 236 236 238 240 244 248 252 257 262 267 274 280 281 281 284 287 290 291 291 292 293 294 297 304 296
182 190 197 200 198 200 206 214 219 220 215 216 222 230 226 224 225 227 230 232 236 239 244 248 251 256 260 265 270 271 272 276 281 284 289 291 292 292 292 293 296 307 308 304
207 210 206 209 214 220 226 230 231 229 226 224 222 224 223 223 224 225 227 231 238 244 248 252 258 263 267 267 268 270 275 278 279 288 293 293 295 289 293 300 305 304 311 315
208 209 208 212 217 222 224 222 222 221 220 218 223 222 223 224 225 228 233 237 243 247 253 257 260 260 262 264 268 274 275 275 282 290 296 299 297 299 302 304 302 304 308 312
208 205 210 211 216 220 221 222 223 219 209 210 217 222 223 225 229 233 238 243 250 254 255 257 257 258 260 264 268 274 273 280 278 279 300 305 309 309 311 310 306 309 313 306
205 211 216 217 222 227 229 227 225 229 221 219 223 227 226 227 231 236 242 245 245 249 253 254 255 259 264 266 268 272 270 277 276 277 285 295 302 306 307 320 316 318 328 325
205 210 211 215 215 217 215 213 207 209 213 218 224 232 229 234 238 241 241 242 244 248 257 266 267 267 266 261 264 268 272 278 273 269 281 286 294 306 314 317 320 327 334 336
214 215 218 213 219 216 211 210 207 210 217 222 228 232 236 239 242 239 236 243 256 263 262 266 276 276 275 265 262 268 273 275 270 276 277 288 283 301 310 318 317 316 331 333
225 216 217 219 222 215 214 215 216 220 224 228 233 236 240 241 235 234 239 248 253 257 261 270 276 275 274 276 275 271 277 274 276 280 281 287 283 298 315 308 314 322 337 344
226 223 222 220 223 220 214 219 222 226 230 231 234 237 238 237 232 236 243 248 251 254 260 265 276 294 293 284 279 281 281 274 278 287 282 284 277 303 311 314 321 327 329 339
223 225 223 224 220 223 222 226 227 230 233 235 235 235 235 234 238 243 246 246 248 250 251 262 286 292 295 296 286 283 286 275 278 280 279 276 281 298 304 309 313 317 321 327
224 225 224 224 225 229 229 233 239 246 239 237 235 234 234 231 232 237 240 242 245 250 248 261 271 284 290 297 293 292 288 280 271 281 281 284 286 287 298 306 312 317 320 325
230 228 228 231 232 234 237 242 245 248 247 240 236 233 243 225 229 236 238 247 253 252 250 257 263 274 282 286 290 292 288 284 284 283 277 275 280 290 300 308 313 317 319 321
238 235 236 238 239 242 243 246 247 248 251 243 236 232 240 226 233 231 236 248 261 263 260 260 265 266 275 283 285 286 289 282 275 271 269 274 285 297 305 312 317 317 316 316
241 239 239 241 243 244 246 248 248 248 251 246 240 238 240 232 232 232 239 250 265 270 270 271 274 275 275 279 283 283 281 276 274 270 268 276 289 297 304 312 318 317 316 317
242 242 240 239 244 244 243 244 245 248 249 246 243 243 239 234 234 237 244 254 266 279 279 277 281 281 273 275 283 288 284 272 267 266 268 278 287 294 301 307 314 321 320 318